This demonstration page uses our WeatherBlox Daily Observations layout. Learn more.

Left ArrowRight Arrow

39.92423, -83.80882

Hourly Observations for September 6, 2020

Temp ( °F °C ) Dew Point ( °F °C ) Humidity (%) Winds ( mph kmh ) Pressure ( in mb ) Visibility ( mi km ) Precip ( " mm )
12:56 am 00:56 Mostly Cloudy 63 17.2 57 13.9 81 81 SW 7 11 30.22 1024 10 16 N/A
1:56 am 01:56 Mostly Clear 61 16.1 57 13.9 87 87 W 7 11 30.22 1023 10 16 N/A
2:56 am 02:56 Clear 59 15 57 13.9 93 93 N N/A 30.22 1023 10 16 N/A
3:56 am 03:56 Clear 56 13.3 56 13.3 100 100 N N/A 30.21 1023 10 16 N/A
4:56 am 04:56 Clear 54 12.2 54 12.2 100 100 N N/A 30.19 1022 10 16 N/A
5:56 am 05:56 Clear 54 12.2 54 12.2 100 100 WNW 3 6 30.20 1023 10 16 N/A
6:56 am 06:56 Clear 53 11.7 53 11.7 100 100 N N/A 30.21 1023 10 16 N/A
7:56 am 07:56 Sunny 53 11.7 53 11.7 100 100 N N/A 30.22 1024 10 16 N/A
8:56 am 08:56 Sunny 60 15.6 60 15.6 100 100 E 5 7 30.22 1023 10 16 N/A
9:56 am 09:56 Sunny 67 19.4 62 16.7 84 84 ESE 5 7 30.22 1023 10 16 N/A
10:56 am 10:56 Sunny 71 21.7 59 15 66 66 SE 5 7 30.22 1023 10 16 N/A
11:56 am 11:56 Sunny 74 23.3 57 13.9 56 56 SSE 5 7 30.20 1023 10 16 N/A
12:56 pm 12:56 Sunny 76 24.4 58 14.4 54 54 VRB 6 9 30.19 1022 10 16 N/A
1:56 pm 13:56 Cloudy 77 25 59 15 54 54 S 8 13 30.18 1022 10 16 N/A
2:56 pm 14:56 Sunny 79 26.1 61 16.1 54 54 SSW 7 11 30.15 1021 10 16 N/A
3:56 pm 15:56 Sunny 78 25.6 63 17.2 60 60 SSE 7 11 30.10 1019 10 16 N/A
4:56 pm 16:56 Sunny 78 25.6 65 18.3 64 64 SSE 12 19 30.05 1018 10 16 N/A
5:56 pm 17:56 Sunny 78 25.6 65 18.3 64 64 S 10 17 30.04 1017 10 16 N/A
6:56 pm 18:56 Sunny 75 23.9 64 17.8 69 69 S 6 9 30.07 1018 10 16 N/A
7:56 pm 19:56 Sunny 72 22.2 64 17.8 76 76 S 6 9 30.04 1017 10 16 N/A
8:56 pm 20:56 Clear 70 21.1 65 18.3 84 84 S 7 11 30.04 1017 10 16 N/A
9:56 pm 21:56 Clear 68 20 65 18.3 90 90 S 7 11 30.04 1017 10 16 N/A
10:56 pm 22:56 Clear 68 20 64 17.8 87 87 S 7 11 30.02 1017 10 16 N/A
11:56 pm 23:56 Clear 68 20 63 17.2 84 84 S 5 7 30.02 1017 10 16 N/A

Powered by AerisWeather